475  
AXUS43 KLBF 270910  
MISLBF  
 
WESTERN AND NORTH CENTRAL NEBRASKA HOURLY WEATHER ROUNDUP  
NATIONAL WEATHER SERVICE NORTH PLATTE NE  
400 AM CDT SAT MAY 27 2017  
 
NOTE: "FAIR" INDICATES FEW OR NO CLOUDS BELOW 12,000 FEET WITH NO  
SIGNIFICANT WEATHER AND/OR OBSTRUCTIONS TO VISIBILITY.  
 
NOTE: STATIONS NOT REPORTING VARIABLES SUCH AS SKY/WEATHER OR  
PRESSURE ARE PROVIDED BY RAWS AND APRS NETWORKS AND ARE NOT UNDER  
NATIONAL WEATHER SERVICE QUALITY CONTROL.  
   
..OBSERVATIONS IN AND NEAR THE EASTERN PANHANDLE OF NEBRASKA
 
 
 
CITY SKY/WX TMP DP RH WIND PRES REMARKS  
PINE RIDGE CLOUDY 50 49 96 CALM 29.99R  
GORDON CLOUDY 50 47 91 NW6 29.99R  
CHADRON LGT RAIN 51 47 86 CALM 30.00R  
ALLIANCE CLOUDY 49 49 100 NW6 29.99R  
SIDNEY CLOUDY 51 49 92 N7 29.99R  
CRESCENT LAKE N/A 49 49 100 W3 N/A  

 
   
..OBSERVATIONS IN NORTHERN NEBRASKA AND FAR SOUTHERN SOUTH DAKOTA
 
 
 
CITY SKY/WX TMP DP RH WIND PRES REMARKS  
WINNER CLOUDY 56 50 80 S7 29.91F  
VALENTINE CLOUDY 54 48 80 SE6 29.91F  
THEDFORD CLOUDY 53 52 97 SE9 29.92F  
AINSWORTH CLOUDY 54 50 86 CALM 29.94F  
O'NEILL LGT RAIN 55 52 88 NW3 29.97S  
ORD LGT RAIN 55 51 86 N8 29.92R  
BROKEN BOW CLOUDY 54 52 93 N12 29.93F  
VALENTINE NWR N/A 52 48 87 CALM N/A  
HALSEY N/A 52 52 100 E5 N/A  
BUTTE N/A 55 49 80 W3 N/A  
CHAMBERS N/A 56 51 83 CALM N/A  
EWING N/A 60 49 67 NW6 N/A  

 
   
..OBSERVATIONS IN SOUTHWEST NEBRASKA AND FAR NORTHEAST COLORADO
 
 
 
CITY SKY/WX TMP DP RH WIND PRES REMARKS  
WRAY PTSUNNY 54 54 100 W5 29.93R  
IMPERIAL CLOUDY 55 51 86 E6 29.88S  
OGALLALA CLOUDY 53 51 92 NE6 29.93R  
NORTH PLATTE CLOUDY 54 52 93 NE15 29.89F  
MCCOOK CLOUDY 58 55 90 NE7 29.87R  
LEXINGTON CLOUDY 57 55 92 E8 29.89S  
STAPLETON N/A 52 50 93 NE6 N/A  
GOTHENBURG N/A 59 54 83 NW5 N/A  
CALLAWAY N/A 54 51 90 N8 N/A  

 
   
..OBSERVATIONS IN CENTRAL LINCOLN COUNTY AREA
 
 
 
CITY SKY/WX TMP DP RH WIND PRES REMARKS  
N.P. AIRPORT CLOUDY 54 52 93 NE15 29.89F  
N.P. DOWNTOWN N/A 53 50 91 NE9G18 N/A  
N.P. SOUTHEAST N/A 53 50 89 N5G12 N/A  
N.P. HILLCREST N/A 53 51 92 NE18 N/A  

 
   
..SOME OBSERVATIONS FROM AROUND THE REGION
 
 
 
CITY SKY/WX TMP DP RH WIND PRES REMARKS  
DENVER CLOUDY 49 45 86 NW8 30.05F  
LIMON CLOUDY 49 48 97 N17 30.01R  
ASPEN CLOUDY 47 28 47 W7 30.03F  
LARAMIE CLOUDY 39 36 89 S13 30.04F WCI 31  
CASPER CLOUDY 42 41 96 CALM 30.06R  
CHEYENNE CLOUDY 45 37 73 NW8 30.04F  
SCOTTSBLUFF CLOUDY 49 46 90 W7 30.01S  
GRAND ISLAND CLOUDY 60 48 64 E3 29.90S  
OMAHA CLOUDY 58 49 72 N7 29.88F  
SIOUX FALLS CLOUDY 52 47 83 CALM 29.90S  
PIERRE CLOUDY 60 43 53 W13 29.90S  
RAPID CITY CLOUDY 50 46 86 W7 29.97S  
BISMARCK PTCLDY 45 37 73 CALM 29.87R  
KANSAS CITY CLEAR 70 64 81 E8 29.83F  
HILL CITY TSTM 60 56 86 NE25G31 29.83F  
WICHITA CLEAR 68 64 87 SE10 29.75F  
DODGE CITY MOCLDY 67 60 78 VRB5G21 29.83R  
OKLAHOMA CITY CLEAR 70 68 93 SE8 29.77F  
DALLAS CLOUDY 80 75 84 S14 29.79S  
AMARILLO CLEAR 63 35 35 SW14 29.82F  

 
 
 
CLICK HERE TO GO TO PREVIOUS BULLETINS.

The Nexlab NE Page Main Text Page